This is the latest recevied weather packets stored in our database for station/object KD4UFD. If no packets are shown the sender has not sent any weather packets the latest 10 day(s).
| Time | Temp. | Humidity | Pressure | Rain* | Wind** | Luminosity | Snow |
|---|---|---|---|---|---|---|---|
| 1777799335 | 3.89° C | 89% | 1019.2 hPa | 0 mm | - | 0 W/m² | - |
| 1777799030 | 4.44° C | 89% | 1019.3 hPa | 0 mm | - | 0 W/m² | - |
| 1777798726 | 4.44° C | 89% | 1019.2 hPa | 0 mm | - | 0 W/m² | - |
| 1777798423 | 4.44° C | 89% | 1019.2 hPa | 0 mm | - | 0 W/m² | - |
| 1777798120 | 4.44° C | 88% | 1019 hPa | 0 mm | - | 0 W/m² | - |
| 1777797818 | 4.44° C | 86% | 1019 hPa | 0 mm | - | 0 W/m² | - |
| 1777797515 | 5° C | 85% | 1019 hPa | 0 mm | - | 0 W/m² | - |
| 1777797212 | 5° C | 85% | 1018.9 hPa | 0 mm | - | 0 W/m² | - |
| 1777796908 | 5° C | 84% | 1018.8 hPa | 0 mm | - | 0 W/m² | - |
| 1777796606 | 5.56° C | 83% | 1019.1 hPa | 0 mm | - | 0 W/m² | - |
| 1777796301 | 6.11° C | 83% | 1019 hPa | 0 mm | - | 0 W/m² | - |
| 1777795998 | 6.11° C | 82% | 1018.7 hPa | 0 mm | - | 0 W/m² | - |
| 1777795694 | 6.11° C | 82% | 1018.9 hPa | 0 mm | - | 0 W/m² | - |
| 1777795391 | 6.11° C | 81% | 1018.8 hPa | 0 mm | - | 0 W/m² | - |
| 1777795087 | 6.67° C | 80% | 1018.7 hPa | 0 mm | - | 0 W/m² | - |
| 1777794784 | 6.67° C | 80% | 1018.5 hPa | 0 mm | - | 0 W/m² | - |
| 1777794480 | 6.67° C | 79% | 1018.7 hPa | 0 mm | - | 0 W/m² | - |
| 1777794175 | 6.67° C | 78% | 1018.6 hPa | 0 mm | - | 0 W/m² | - |
| 1777793872 | 7.22° C | 78% | 1018.5 hPa | 0 mm | - | 0 W/m² | - |
| 1777793569 | 7.22° C | 77% | 1018.3 hPa | 0 mm | - | 0 W/m² | - |
| 1777793268 | 7.78° C | 76% | 1018.2 hPa | 0 mm | - | 0 W/m² | - |
| 1777792965 | 7.78° C | 76% | 1018.2 hPa | 0 mm | - | 0 W/m² | - |
| 1777792661 | 7.78° C | 76% | 1018.1 hPa | 0 mm | - | 0 W/m² | - |
| 1777792358 | 7.78° C | 76% | 1018 hPa | 0 mm | - | 0 W/m² | - |
| 1777792054 | 7.78° C | 77% | 1018 hPa | 0 mm | - | 0 W/m² | - |
* Rain latest hour (hover to see other rain measurements)
** Current wind speed in m/s (hover to see current wind gust speed)